English version Home page |
Updated on June 20, 1997 |
プロフィール
|
軌道要素T 1997 June 10.97523 TT Marsden q 0.0430141 (2000.0) P Q Peri. 66.38986 -0.16952355 -0.39694522 Node 72.79319 +0.08866097 -0.91773027 e 1.0 Incl. 70.78943 +0.98152993 +0.01434016 >From 18 observations 1997 June 10-11.
|
星図 |
光度変化m1 = 21.0 + 5 logΔ + 12.5 log r
|
軌道要素は Dr. Brian G. Marsden の計算によるもので、
M.P.E.C. 1997-M06
に掲載されたものです。
|